This demonstration page uses our WeatherBlox Daily Observations layout. Learn more.

40.92945, -100.16068

Hourly Observations for March 28, 2020

Temp ( °F °C ) Dew Point ( °F °C ) Humidity (%) Winds ( mph kmh ) Pressure ( in mb ) Visibility ( mi km ) Precip ( " mm )
12:15 am 00:15 Cloudy with Light Rain 42 5.5 42 5.3 99 99 NE 6 9 29.67 1005 10 16.0934 0 0
12:35 am 00:35 Cloudy with Light Thunderstorms 42 5.7 42 5.3 97 97 SE 8 13 29.71 1006 3 4.82802 0.07 1.778
12:55 am 00:55 Cloudy with Thunderstorms 42 5.6 42 5.5 99 99 ENE 8 13 29.66 1004 3 4.82802 0.16 4.064
1:15 am 01:15 Cloudy 42 5.5 42 5.4 99 99 E 3 6 29.69 1006 10 16.0934 0.01 0.254
1:35 am 01:35 Cloudy with Rain 42 5.5 42 5.3 99 99 ENE 3 6 29.68 1005 7 11.26538 0.03 0.762
1:55 am 01:55 Cloudy with Light Rain 42 5.5 42 5.4 99 99 ENE 5 7 29.68 1005 10 16.0934 0.04 1.016
2:15 am 02:15 Cloudy 42 5.3 42 5.3 100 100 NNE 3 6 29.66 1005 10 16.0934 0 0
2:35 am 02:35 Cloudy 42 5.5 42 5.3 99 99 NE 3 6 29.67 1005 10 16.0934 0 0
2:55 am 02:55 Cloudy 42 5.5 41 5.2 98 98 NE 5 7 29.67 1005 10 16.0934 0 0
3:15 am 03:15 Cloudy 42 5.5 41 5.2 98 98 ENE 5 7 29.66 1004 10 16.0934 0 0
3:35 am 03:35 Cloudy 42 5.3 41 5.1 99 99 ENE 7 11 29.64 1004 10 16.0934 0 0
3:55 am 03:55 Cloudy 41 5.1 41 5.1 100 100 ENE 6 9 29.64 1004 10 16.0934 0 0
4:15 am 04:15 Cloudy with Mist and Fog 41 5 41 5 100 100 NE 8 13 29.62 1003 2 3.21868 0 0
4:35 am 04:35 Cloudy 41 5 41 5 100 100 NW 5 7 29.64 1004 7 11.26538 0 0
4:55 am 04:55 Cloudy with Light Drizzle 41 5 41 5 100 100 N 8 13 29.6 1002 10 16.0934 0 0
5:15 am 05:15 Cloudy 41 5 41 4.9 99 99 N 8 13 29.59 1002 10 16.0934 0 0
5:35 am 05:35 Cloudy with Mist and Fog 41 5 41 5 100 100 NNE 9 15 29.57 1001 5 8.0467 0 0
5:55 am 05:55 Cloudy with Mist and Fog 41 5 41 5 100 100 NNE 8 13 29.58 1002 5 8.0467 0 0
6:15 am 06:15 Cloudy 41 5 41 5 100 100 NNW 9 15 29.6 1002 7 11.26538 0 0
6:35 am 06:35 Cloudy with Light Rain 40 4.5 40 4.5 100 100 N 12 19 29.58 1002 5 8.0467 0.03 0.762
6:55 am 06:55 Cloudy with Heavy Rain 40 4.6 40 4.5 99 99 N 5 7 29.6 1002 5 8.0467 0.06 1.524
7:15 am 07:15 Cloudy with Light Rain 40 4.5 40 4.5 100 100 NE 9 15 29.59 1002 3 4.82802 0.05 1.27
7:35 am 07:35 Cloudy with Rain 40 4.5 40 4.5 100 100 N 10 17 29.58 1002 7 11.26538 0.13 3.302
7:55 am 07:55 Cloudy with Rain 40 4.6 40 4.5 99 99 N 9 15 29.58 1002 7 11.26538 0.18 4.572
8:15 am 08:15 Cloudy with Light Rain 41 4.8 40 4.7 99 99 N 9 15 29.58 1002 10 16.0934 0.01 0.254
8:35 am 08:35 Cloudy with Light Drizzle 41 5.1 41 5 99 99 N 9 15 29.58 1002 10 16.0934 0.01 0.254
8:55 am 08:55 Cloudy 42 5.5 41 5.2 98 98 N 9 15 29.57 1001 10 16.0934 0.01 0.254
9:15 am 09:15 Cloudy 42 5.6 42 5.3 98 98 N 10 17 29.56 1001 10 16.0934 0 0
9:35 am 09:35 Cloudy with Light Rain 42 5.8 42 5.4 97 97 N 16 26 29.56 1001 10 16.0934 0 0
9:55 am 09:55 Cloudy 43 6 41 5.1 94 94 N 17 28 29.55 1001 10 16.0934 0 0
10:15 am 10:15 Cloudy 43 6.1 41 5.2 94 94 N 18 30 29.55 1001 10 16.0934 0 0
10:35 am 10:35 Cloudy with Drizzle 43 6.1 41 5.1 93 93 N 18 30 29.55 1001 5 8.0467 0.01 0.254
10:55 am 10:55 Cloudy with Light Rain 43 6 41 5.1 94 94 N 20 31 29.55 1001 5 8.0467 0.02 0.508
11:15 am 11:15 Cloudy with Light Rain 42 5.6 40 4.6 93 93 N 23 37 29.55 1001 7 11.26538 0.01 0.254
11:35 am 11:35 Cloudy with Light Rain 41 5.1 39 4 93 93 N 24 39 29.57 1001 10 16.0934 0.01 0.254
11:55 am 11:55 Cloudy with Light Rain 40 4.7 38 3.5 92 92 N 24 39 29.58 1002 10 16.0934 0.01 0.254
12:15 pm 12:15 Cloudy with Light Drizzle 41 5 39 3.8 92 92 N 30 48 29.58 1002 10 16.0934 0.01 0.254
12:35 pm 12:35 Cloudy 42 5.3 39 4 91 91 N 23 37 29.58 1002 10 16.0934 0.01 0.254
12:55 pm 12:55 Cloudy with Light Drizzle 41 5.1 38 3.6 90 90 N 25 41 29.6 1002 10 16.0934 0.01 0.254
1:15 pm 13:15 Cloudy with Rain 40 4.7 38 3.6 93 93 NNW 25 41 29.61 1003 7 11.26538 0 0
1:35 pm 13:35 Cloudy with Light Rain 40 4.5 38 3.3 92 92 NNW 26 43 29.61 1003 10 16.0934 0.01 0.254
1:55 pm 13:55 Cloudy with Light Rain 39 4 37 3 93 93 NNW 24 39 29.65 1004 7 11.26538 0.01 0.254
2:15 pm 14:15 Cloudy with Light Rain 38 3.5 37 2.8 95 95 NW 24 39 29.66 1004 4 6.43736 0.01 0.254
2:35 pm 14:35 Cloudy with Light Rain 38 3.1 37 2.5 96 96 NW 25 41 29.69 1005 7 11.26538 0.02 0.508
2:55 pm 14:55 Cloudy with Light Rain 38 3.5 37 2.8 95 95 NW 22 35 29.69 1005 5 8.0467 0.03 0.762
3:15 pm 15:15 Cloudy with Light Rain 39 4.1 38 3.2 94 94 NNW 21 33 29.7 1006 4 6.43736 0.02 0.508
3:35 pm 15:35 Windy with Snow Likely 40 4.3 38 3.4 94 94 NNW 21 33 29.71 1006 2.5 4.02335 0.04 1.016
3:55 pm 15:55 Cloudy with Light Rain 40 4.6 38 3.6 93 93 NW 20 31 29.72 1006 7 11.26538 0.06 1.524
4:15 pm 16:15 Cloudy with Light Rain 41 5 39 4 93 93 NNW 17 28 29.73 1007 7 11.26538 0.01 0.254
4:35 pm 16:35 Cloudy with Light Rain 41 5.1 39 3.8 91 91 NNW 30 48 29.74 1007 5 8.0467 0.03 0.762
4:55 pm 16:55 Cloudy with Light Rain 41 5 39 3.8 92 92 NNW 26 43 29.76 1008 7 11.26538 0.04 1.016
5:15 pm 17:15 Cloudy with Light Rain 41 5 38 3.5 90 90 NNW 35 56 29.78 1008 10 16.0934 0.01 0.254
5:35 pm 17:35 Cloudy with Light Rain 41 5 38 3.4 90 90 NNW 30 48 29.79 1009 10 16.0934 0.02 0.508
5:55 pm 17:55 Cloudy 42 5.4 38 3.5 88 88 N 21 33 29.79 1009 10 16.0934 0.02 0.508
6:15 pm 18:15 Cloudy with Light Rain 42 5.6 39 3.7 88 88 N 16 26 29.8 1009 10 16.0934 0 0
6:35 pm 18:35 Cloudy 43 5.9 39 3.8 87 87 NNW 12 19 29.8 1009 10 16.0934 0 0
6:55 pm 18:55 Cloudy 44 6.6 39 4.1 84 84 NNW 12 19 29.8 1009 10 16.0934 0 0
7:15 pm 19:15 Mostly Cloudy 44 6.7 40 4.5 86 86 NW 9 15 29.81 1010 10 16.0934 0 0
7:35 pm 19:35 Partly Cloudy 44 6.4 39 4 85 85 NW 10 17 29.82 1010 10 16.0934 0 0
7:55 pm 19:55 Sunny 42 5.8 38 3.5 85 85 WNW 10 17 29.83 1010 10 16.0934 0 0
8:15 pm 20:15 Clear 42 5.5 38 3.6 88 88 WNW 9 15 29.85 1011 10 16.0934 0 0
8:35 pm 20:35 Clear 42 5.3 38 3.5 88 88 WNW 9 15 29.86 1011 10 16.0934 0 0
8:55 pm 20:55 Partly Cloudy 42 5.3 38 3.2 86 86 WNW 8 13 29.87 1011 10 16.0934 0 0
9:15 pm 21:15 Clear 40 4.7 38 3.1 90 90 WNW 7 11 29.88 1012 10 16.0934 0 0
9:35 pm 21:35 Clear 40 4.2 37 2.9 91 91 WNW 7 11 29.9 1012 10 16.0934 0 0
9:55 pm 21:55 Clear 39 3.9 37 2.6 91 91 WNW 5 7 29.91 1013 10 16.0934 0 0
10:15 pm 22:15 Clear 38 3.3 36 2.4 94 94 WNW 6 9 29.91 1013 10 16.0934 0 0
10:35 pm 22:35 Clear 38 3.5 37 2.5 93 93 WNW 7 11 29.91 1013 10 16.0934 0 0
10:55 pm 22:55 Clear 38 3.5 37 2.6 94 94 WNW 7 11 29.91 1013 10 16.0934 0 0
11:15 pm 23:15 Clear 40 4.3 37 3 91 91 WNW 9 15 29.9 1013 10 16.0934 0 0
11:35 pm 23:35 Clear 41 4.8 37 2.6 86 86 WNW 12 19 29.91 1013 10 16.0934 0 0
11:55 pm 23:55 Clear 40 4.6 37 2.5 86 86 WNW 10 17 29.92 1013 10 16.0934 0 0

Powered by AerisWeather